TimeGMT,TemperatureF,Dew PointF,Humidity,Sea Level PressureIn,VisibilityMPH,Wind Direction,Wind SpeedMPH,Gust SpeedMPH,PrecipitationIn,Events,Conditions,WindDirDegrees,DateUTC
12:00 AM,35,33,90,29.86,,SW,6.7,,,,,230,2012-11-18 00:00:00
6:00 AM,33,32,94,29.86,,South,4.5,,,,,170,2012-11-18 06:00:00
8:00 AM,32.0,32.0,100,29.80,-9999.0,SSE,4.6,-,N/A,,Clear,150,2012-11-18 08:00:00
8:30 AM,32.0,32.0,100,29.80,-9999.0,SSE,4.6,-,N/A,,Clear,160,2012-11-18 08:30:00
9:00 AM,33.8,32.0,93,29.80,6.2,SSE,5.8,-,N/A,,Mostly Cloudy,150,2012-11-18 09:00:00
9:30 AM,33.8,33.8,100,29.80,6.2,SSE,6.9,-,N/A,,Mostly Cloudy,150,2012-11-18 09:30:00
10:00 AM,33.8,32.0,93,29.80,6.2,SE,5.8,-,N/A,Fog,Shallow Fog,140,2012-11-18 10:00:00
10:30 AM,33.8,32.0,93,29.77,6.2,SSE,5.8,-,N/A,,Overcast,150,2012-11-18 10:30:00
11:00 AM,33.8,33.8,100,29.77,6.2,SSE,5.8,-,N/A,,Mostly Cloudy,150,2012-11-18 11:00:00
11:30 AM,35.6,33.8,93,29.77,6.2,SSE,6.9,-,N/A,,Overcast,150,2012-11-18 11:30:00
12:00 PM,36,36,98,29.80,19,SSE,6.7,,,,Overcast,150,2012-11-18 12:00:00
12:00 PM,37.4,35.6,93,29.74,6.2,SSE,6.9,-,N/A,,Overcast,150,2012-11-18 12:00:00
12:30 PM,37.4,37.4,100,29.74,6.2,SE,6.9,-,N/A,,Overcast,140,2012-11-18 12:30:00
1:00 PM,37.4,37.4,100,29.71,6.2,SSE,11.5,-,N/A,Rain,Light Rain,160,2012-11-18 13:00:00
1:30 PM,37.4,37.4,100,29.71,6.2,SSE,10.4,-,N/A,Rain,Light Rain,160,2012-11-18 13:30:00
2:00 PM,39.2,39.2,100,29.68,6.2,SSE,13.8,-,N/A,Rain,Light Rain,160,2012-11-18 14:00:00
2:30 PM,39.2,39.2,100,29.68,6.2,SSE,11.5,-,N/A,Rain,Light Rain,150,2012-11-18 14:30:00
3:00 PM,39.2,39.2,100,29.65,6.2,SSE,13.8,-,N/A,Rain,Light Rain,150,2012-11-18 15:00:00
3:30 PM,39.2,39.2,100,29.62,6.2,SE,15.0,-,N/A,Rain,Light Rain,140,2012-11-18 15:30:00
4:00 PM,39.2,39.2,100,29.59,6.2,SE,18.4,32.2,N/A,Rain,Light Rain,140,2012-11-18 16:00:00
4:30 PM,39.2,39.2,100,29.56,6.2,SE,19.6,-,N/A,Rain,Light Rain,130,2012-11-18 16:30:00
5:00 PM,39.2,39.2,100,29.53,5.0,SE,19.6,-,N/A,Rain,Light Rain,140,2012-11-18 17:00:00
6:00 PM,40,40,100,29.52,6,SE,22.4,,,Rain,Light Rain,140,2012-11-18 18:00:00